Location: Newark
(7.0858°N, 171.3717°E)
Time: 09:23:39
(UTC+00:00)

S-56A Canister/Altair - Pass Details

Date: 27 November 2020
Orbit: 633 x 2499 km, 38.9° (Epoch: 27 January)

Event Time Altitude Azimuth Distance (km) Brightness Sun altitude
Rises 02:07:37 0° 194° (SSW) 5,912 12.6 51.7°
Reaches altitude 10° 02:14:29 10° 172° (S) 5,102 12.2 50.5°
Maximum altitude 02:21:31 15° 144° (SE) 4,773 11.8 49.3°
Drops below altitude 10° 02:28:26 10° 115° (ESE) 5,072 11.7 48.1°
Sets 02:35:03 0° 94° (E) 5,863 11.7 46.8°
